Location: Flynn Junction
(40.1314°N, 99.5162°W)
Time: 21:42:26
(UTC+00:00)

CZ-3 R/B - Pass Details

Date: 29 October 2020
Orbit: 373 x 10235 km, 28.4° (Epoch: 30 November)

Event Time Altitude Azimuth Distance (km) Brightness Sun altitude
Exits shadow 11:59:47 10° 260° (W) 8,414 5.7 -12.9°
Maximum altitude 12:20:07 43° 199° (SSW) 2,391 3.5 -9.1°
Drops below altitude 10° 12:26:24 10° 128° (SE) 2,734 5.0 -7.9°
Sets 12:28:10 0° 119° (ESE) 3,291 6.0 -7.6°
